Theta_e
313 313 313 313 313 314 315 315 315 314 315 315 316 317 319 320 317 304 300 309 315 323 317 305 305 303 301 298 299 298 288 285 287 289 290 295 294 298 298 296 297 299 299 302 304
312 313 313 313 313 314 314 314 314 314 315 315 316 317 318 319 306 301 311 320 320 321 305 302 301 301 297 297 296 291 286 288 292 293 293 295 295 294 295 295 296 297 300 301 301
311 312 312 313 314 314 314 314 314 314 314 315 316 317 319 314 298 299 317 319 319 314 305 304 303 300 295 296 295 293 287 292 294 297 297 295 295 296 294 292 295 294 296 298 298
311 312 312 312 313 314 314 313 313 314 314 315 316 317 318 305 289 303 317 317 316 309 305 302 300 296 293 292 295 291 294 295 297 297 296 294 296 294 294 295 297 297 298 297 297
311 312 312 312 313 313 314 313 313 313 314 315 316 318 307 295 297 307 314 311 307 306 302 300 297 295 291 293 294 291 293 295 296 296 296 296 293 293 293 296 297 297 297 296 297
312 312 312 312 312 313 314 313 313 313 314 315 316 317 301 291 304 306 306 306 306 303 302 302 299 298 295 294 292 294 294 294 295 295 296 293 294 294 295 295 295 295 295 296 297
313 313 313 313 312 313 313 313 312 313 314 315 317 310 297 295 304 304 306 304 306 304 300 303 303 297 296 293 296 294 290 291 293 294 294 294 290 291 294 294 293 293 295 296 297
314 314 314 313 313 313 313 313 312 313 314 315 316 303 293 305 302 304 305 303 306 307 304 305 304 299 296 296 292 289 288 284 290 293 294 292 285 292 294 292 292 293 295 296 298
314 313 314 313 313 313 313 312 312 312 312 314 301 297 292 307 299 302 303 301 302 304 306 307 301 294 293 287 284 285 281 283 286 293 292 291 287 291 293 291 291 292 294 295 296
314 313 313 312 313 312 312 310 310 307 305 308 303 292 295 294 299 301 302 303 300 299 298 297 291 286 287 283 276 280 281 283 284 288 290 288 288 291 291 291 290 292 293 294 295
314 313 313 312 312 312 303 296 291 289 293 292 292 292 295 299 302 300 302 300 299 295 288 291 286 280 286 287 287 286 285 283 285 289 288 288 288 289 290 290 290 291 292 293 295
315 314 313 312 311 309 298 292 290 291 283 293 295 295 298 299 294 297 301 294 292 287 288 286 284 287 290 290 288 286 282 281 285 288 289 287 286 289 289 290 291 292 291 293 294
315 313 313 312 308 298 294 294 300 297 284 289 294 294 295 298 293 294 297 294 289 287 285 282 286 289 287 285 285 283 281 278 283 286 289 284 281 284 287 289 291 291 292 292 292
314 313 313 309 300 295 290 298 299 297 282 286 289 293 295 296 291 298 298 295 290 286 286 284 287 287 284 284 285 282 286 285 285 283 277 283 274 274 282 285 288 289 289 289 290
314 312 312 307 295 293 294 297 298 293 277 288 289 297 295 290 292 292 297 293 288 288 284 283 285 284 284 284 286 282 287 286 284 283 284 277 277 276 281 281 285 288 288 288 289
313 312 309 302 298 297 298 296 293 285 277 284 289 288 288 290 290 292 292 295 293 287 286 285 288 286 285 287 286 288 285 283 283 283 272 273 275 275 277 281 284 287 287 287 288
313 312 306 303 295 300 299 292 280 276 285 282 282 287 285 285 287 288 287 286 284 280 281 283 284 286 287 283 286 286 280 272 271 269 272 278 276 278 281 284 286 287 285 286 286
313 310 303 301 301 301 293 286 273 277 280 285 285 286 283 285 284 285 284 282 285 282 280 279 277 284 287 283 281 283 281 274 269 269 272 279 274 280 284 286 288 286 285 286 286
311 302 300 300 301 299 289 278 279 280 285 284 285 281 280 284 283 283 282 282 284 285 280 279 279 285 285 286 284 282 279 282 277 273 273 275 279 283 285 284 284 283 284 284 285
302 298 297 301 301 295 283 281 279 286 286 286 284 282 278 279 281 281 281 284 285 286 286 283 278 283 285 287 286 283 285 278 276 268 268 272 276 277 282 283 283 282 282 283 285
300 293 297 301 298 287 279 279 283 285 289 286 284 281 281 281 281 280 281 284 287 286 287 284 281 279 283 282 281 282 281 281 280 278 272 270 274 281 283 284 284 283 282 283 284
297 285 298 299 285 284 280 279 285 284 287 287 286 283 282 282 281 281 281 284 289 288 284 285 281 276 278 281 283 282 281 281 275 273 276 276 276 284 284 285 285 284 282 283 284
292 286 298 297 283 278 280 280 283 283 285 286 284 285 284 282 281 282 283 287 289 287 285 286 276 269 274 278 281 281 282 283 281 280 275 273 275 283 283 283 284 282 281 283 283
288 281 285 287 288 285 280 279 281 283 285 287 286 285 283 282 283 281 283 287 288 287 292 288 279 277 275 277 279 279 281 282 281 275 276 277 277 281 282 282 282 281 282 282 283
288 284 286 280 282 281 283 281 280 279 282 286 283 283 284 280 281 281 284 285 286 290 285 284 275 277 279 280 281 281 281 281 281 280 277 277 278 282 283 283 284 282 281 281 282
286 284 286 279 286 284 283 280 281 281 281 281 280 284 285 283 284 282 284 285 284 284 284 283 275 275 272 277 278 276 280 280 282 282 281 281 281 284 284 283 281 282 282 282 282
294 293 291 288 285 283 283 283 282 285 283 285 285 284 284 285 287 286 287 288 286 284 282 281 276 272 270 272 271 274 275 279 280 280 283 279 283 283 282 283 283 283 283 283 283
Wind_Speed
7 9 9 10 11 12 12 13 12 12 12 12 12 12 12 13 9 5 6 5 8 14 11 5 4 5 5 5 5 2 5 2 3 2 2 3 4 4 3 2 3 4 4 7 15
6 8 9 10 11 12 13 13 14 14 13 13 12 10 10 9 2 7 3 11 14 13 5 5 3 5 5 4 5 5 4 5 2 3 2 3 1 4 4 6 5 5 8 9 13
6 7 8 10 11 12 13 14 14 14 14 13 11 10 10 2 3 3 11 13 12 8 1 1 2 4 5 4 5 2 3 3 2 2 2 1 2 3 2 3 2 10 16 15 14
5 6 7 9 11 12 13 13 14 14 14 13 10 10 8 1 1 3 12 12 9 7 3 4 4 4 4 4 2 6 2 1 1 2 2 3 2 3 4 1 7 7 9 8 12
6 6 7 8 10 12 14 14 14 15 15 13 11 11 1 5 1 3 9 9 4 4 6 3 4 3 6 5 3 4 2 1 1 2 3 2 2 3 2 4 6 6 7 8 9
8 8 8 8 10 12 14 15 15 15 13 11 10 9 1 3 1 4 5 4 5 5 6 6 3 1 6 4 4 3 2 2 3 3 2 2 1 2 2 7 8 7 8 7 10
8 9 9 9 10 12 15 16 15 15 13 10 9 3 4 4 1 4 3 2 2 2 4 3 1 4 3 4 1 3 3 2 2 4 1 0 2 3 4 7 8 10 10 11 11
9 10 11 10 9 11 15 17 16 15 10 8 7 2 2 1 1 2 2 2 4 4 4 2 4 6 4 4 5 4 4 2 2 5 2 2 3 2 6 7 11 11 11 13 13
10 9 9 8 7 11 15 17 17 8 7 5 2 1 1 1 1 1 2 1 1 2 4 2 5 4 4 4 4 6 2 2 6 3 3 4 3 1 5 7 9 9 12 12 13
11 9 7 6 8 11 16 17 7 5 2 1 1 3 2 2 1 2 1 3 3 2 3 5 5 4 4 4 3 3 2 1 3 2 2 3 4 1 4 5 6 9 9 11 14
11 9 7 6 7 10 8 5 5 3 4 1 2 2 1 1 1 2 1 2 1 6 3 3 6 2 4 3 5 5 3 3 4 2 3 3 3 2 3 4 6 8 11 13 13
11 8 8 6 4 7 2 3 1 1 4 1 1 0 1 1 2 1 0 2 3 3 2 5 3 4 5 4 4 2 2 3 4 3 2 3 6 4 1 3 4 6 6 10 13
11 9 6 3 2 3 1 1 2 1 1 1 2 2 1 3 2 2 1 1 3 3 2 4 4 5 3 2 3 3 4 3 3 4 1 7 4 2 3 4 5 4 5 6 9
11 8 5 3 2 1 3 1 2 1 5 2 1 1 1 2 1 1 2 2 2 4 5 3 1 4 2 2 4 1 4 3 2 3 2 4 6 5 4 7 4 5 7 7 10
14 11 9 3 4 3 3 1 1 2 4 2 2 1 1 3 4 1 2 1 5 4 4 2 5 3 2 2 4 2 4 3 0 1 3 5 2 8 2 5 6 5 6 6 7
18 16 15 3 2 2 3 2 2 7 9 2 3 4 3 1 0 1 2 4 1 4 3 2 1 2 3 2 1 3 3 3 3 1 2 4 4 7 5 6 4 3 5 6 7
22 19 12 5 4 4 5 3 6 5 3 4 4 4 3 4 2 3 4 3 5 5 2 1 2 1 2 3 1 2 3 4 6 4 4 3 2 11 5 6 5 4 4 5 6
24 22 11 4 6 5 5 4 3 4 5 2 4 3 6 6 3 3 4 3 4 3 4 6 3 5 3 2 4 1 3 5 5 2 5 2 6 6 5 3 4 3 2 2 6
26 5 6 5 9 4 7 3 10 9 6 11 3 4 3 3 4 4 6 5 7 9 8 5 2 1 2 2 2 2 2 2 6 1 2 4 7 5 2 4 4 5 3 3 4
10 6 4 11 9 9 5 12 8 5 6 3 9 4 8 5 6 6 7 4 5 6 1 6 5 1 2 2 3 2 5 3 3 1 5 5 6 6 6 10 8 7 7 5 2
7 7 8 11 12 6 7 10 7 6 5 8 7 6 5 8 8 5 6 2 4 5 2 3 2 0 2 5 7 2 2 3 3 3 4 3 7 7 7 9 12 9 8 7 5
7 6 11 13 5 4 7 10 4 5 2 1 4 3 8 9 7 4 8 3 8 9 8 5 4 4 3 0 0 2 5 5 5 5 3 1 10 1 6 6 8 9 8 6 6
7 4 8 6 10 7 2 3 3 5 6 8 8 5 3 8 4 7 5 3 7 7 8 7 2 3 7 5 2 5 5 4 4 3 7 5 8 2 2 3 6 8 8 7 6
6 6 2 3 3 11 10 5 10 4 4 5 6 5 4 4 2 6 4 1 2 4 3 5 2 5 7 4 5 6 5 6 6 4 5 10 5 5 7 7 7 8 8 8 8
5 6 8 13 15 3 15 15 16 11 3 4 3 7 10 6 4 6 4 3 3 4 2 4 5 2 3 3 2 3 5 10 16 7 10 3 12 11 11 13 14 9 7 8 8
8 7 5 3 15 14 16 13 22 13 12 8 7 14 7 7 8 10 8 5 6 4 7 2 2 2 4 2 2 7 11 12 15 16 18 15 29 13 9 5 7 11 11 10 10
2 1 5 12 18 18 21 16 22 16 8 6 13 10 9 5 3 3 3 5 7 11 8 7 7 3 6 3 4 11 15 23 9 8 19 14 15 5 5 10 12 13 14 15 13
Wind_Direction
350 354 357 356 356 352 350 349 349 349 350 348 349 348 348 345 340 34 37 287 315 324 333 300 32 3 33 60 41 119 68 141 160 155 290 344 8 323 314 348 57 27 44 306 317
340 347 351 354 351 349 346 345 344 343 344 343 342 342 341 344 37 55 312 336 332 339 3 29 35 18 49 31 19 69 97 184 135 144 233 292 7 313 6 12 350 328 331 334 337
323 337 344 349 351 348 346 343 341 340 337 336 334 334 334 346 95 333 336 341 342 351 242 76 92 71 66 46 5 41 121 148 186 179 193 304 68 7 9 27 334 314 325 340 342
304 319 333 342 345 345 344 341 338 336 334 331 328 329 326 144 147 282 337 345 356 17 71 32 30 63 81 85 3 88 62 100 107 8 50 8 310 101 59 319 306 305 309 321 338
281 296 311 330 337 340 340 338 336 336 334 333 328 332 312 54 172 322 340 352 17 43 46 49 59 112 114 104 83 85 178 82 13 61 67 23 37 194 103 307 313 299 304 316 314
268 280 292 312 327 334 335 334 332 331 330 328 331 334 356 95 292 338 336 13 31 35 28 35 85 107 95 78 80 132 123 135 44 6 89 39 51 158 346 333 331 326 317 306 318
254 268 278 295 316 328 329 328 327 327 324 324 335 355 48 156 296 323 27 37 28 43 75 43 31 60 128 93 103 91 93 348 38 347 120 254 55 31 301 333 327 335 333 338 324
234 256 262 264 298 319 323 322 318 317 312 317 329 327 109 263 231 34 353 51 33 53 90 63 71 96 60 123 39 60 59 40 343 3 11 58 284 357 339 352 343 337 344 342 337
225 244 270 288 299 317 319 316 310 299 298 318 4 29 111 340 63 319 35 79 48 64 51 82 70 84 34 80 44 20 127 6 325 85 325 48 276 135 356 4 343 345 345 337 334
225 238 266 296 307 321 323 314 294 330 12 74 72 62 315 208 324 344 342 81 81 91 54 48 57 76 43 74 197 205 103 252 247 303 346 269 264 160 358 359 345 330 330 341 340
224 231 238 268 305 332 352 6 17 353 34 248 126 114 136 317 326 15 323 104 77 46 80 8 73 130 159 107 127 125 136 203 253 257 309 228 287 333 2 349 335 318 359 349 344
214 221 231 247 306 341 58 64 170 227 315 124 149 38 194 182 109 309 37 119 83 110 102 31 128 184 125 125 107 104 113 283 293 287 222 326 291 200 197 266 263 295 316 341 346
202 205 216 211 357 40 45 0 120 147 210 262 191 163 197 151 163 192 86 138 103 103 93 138 179 141 126 142 132 171 152 233 242 320 264 324 327 299 262 275 269 306 301 312 330
186 182 186 140 58 359 333 90 81 81 55 203 186 0 90 132 60 330 15 131 51 145 130 123 147 155 135 186 147 241 184 186 296 34 289 22 286 290 257 284 266 306 322 335 345
172 175 185 194 150 73 313 344 341 39 354 67 142 165 133 155 140 353 319 27 147 146 123 166 159 160 173 226 187 170 151 183 227 149 308 336 82 268 335 279 277 303 322 339 336
173 173 139 110 36 133 114 345 27 45 251 140 129 151 118 30 163 122 70 47 104 94 41 137 312 177 184 94 205 147 122 54 60 97 359 248 113 279 199 210 257 271 322 339 339
167 164 147 143 158 146 96 0 40 166 343 210 179 168 164 160 169 163 155 165 163 110 182 40 219 229 140 111 313 114 70 338 353 10 226 183 84 246 230 224 218 255 310 338 339
162 152 139 140 134 161 83 43 148 244 217 121 118 107 181 159 195 147 133 213 232 116 128 161 287 174 165 210 183 159 164 154 225 265 290 154 238 253 208 188 223 220 276 346 341
145 127 141 165 131 91 80 147 208 197 166 151 84 144 267 210 157 146 200 217 200 179 167 145 184 106 80 143 126 168 187 154 108 41 7 217 278 280 157 212 218 236 264 309 331
143 133 162 152 133 91 80 231 218 198 136 162 177 146 180 202 161 181 188 207 192 193 183 206 115 80 134 91 44 177 156 72 7 47 296 280 271 243 213 224 217 220 227 254 286
133 144 144 148 111 103 193 226 218 219 159 168 190 135 185 178 180 197 205 241 168 149 115 143 88 151 107 202 182 146 208 68 118 149 191 294 262 213 218 204 199 205 206 208 229
143 148 168 162 138 190 192 191 216 179 174 140 119 127 176 170 168 225 216 240 168 152 163 197 136 163 191 238 295 225 208 168 137 218 228 153 270 239 236 215 186 188 197 197 204
140 92 180 183 198 196 165 221 200 154 183 173 195 199 177 168 191 194 189 345 159 156 162 181 274 62 351 357 352 225 197 164 112 101 203 149 263 154 264 208 202 185 194 196 191
126 130 186 216 234 180 163 177 204 202 219 167 161 123 123 173 272 167 147 71 178 167 171 113 147 177 187 170 136 205 193 181 155 162 192 226 253 217 222 218 219 213 197 193 198
161 180 182 192 216 192 174 173 190 193 216 189 217 192 172 158 146 172 134 113 41 174 96 142 199 156 261 251 230 238 203 191 209 197 193 234 222 223 209 207 211 204 188 187 205
151 156 168 157 173 182 191 206 197 185 148 207 190 193 196 161 197 176 140 183 183 175 160 171 169 95 302 1 257 259 235 233 223 231 253 264 278 207 214 171 175 199 190 198 205
124 118 156 166 175 177 208 187 195 176 206 178 176 162 189 176 74 356 77 124 165 156 163 153 138 115 261 343 338 290 219 208 197 208 216 216 235 134 173 196 207 203 196 202 202